Flag for Malaysia Weather past 2 weeks in Kuala Lumpur, Malaysia

Now
82 °F

Partly cloudy.


Feels Like: 89 °F
Forecast: 77 / 88 °F
Wind: 2 mph from Northwest

Location: Sultan Abdul Aziz Shah-Subang

Current Time: Aug 30, 2015 at 4:09:47 AM

Latest Report: Aug 30, 2015 at 3:00 AM


Visibility: 2 mi

Pressure: 29.83 "Hg

Humidity: 79%

Dew point: 75 °F

Location of Kuala LumpurLocation

Historic Weather in Kuala Lumpur — Graph

°F

Kuala Lumpur temperature yesterday

Maximum temperature yesterday: 95 °F (at 1:00 PM)
Minimum temperature yesterday: 79 °F (at 6:00 AM)
Average temperature yesterday: 87 °F

Past Weeks' High & Low Weather Summary

 TemperatureHumidityPressure
High95 °F (Aug 28, 3:00 PM)100% (Aug 16, 7:00 PM)29.95 "Hg (Aug 16, 7:00 PM)
Low75 °F (Aug 16, 6:00 PM)49% (Aug 18, 1:00 PM)29.71 "Hg (Aug 29, 5:00 PM)
Average84 °F79%29.84 "Hg
* Reported Aug 15 3:00 AM — Aug 30 3:00 AM, Kuala Lumpur, Weather by CustomWeather, © 2015

Note: Actual official high and low records may vary slightly from our data, if they occured in-between our weather recording intervals... More about our weather records

Advertising

Kuala Lumpur weather history for previous 24 hours

 ConditionsComfort  
Time TempWeatherWind HumidityBarometerVisibility
3:00 AM
Sun, Aug 30
82 °FPartly cloudy.2 mph79%29.83 "Hg2 mi
2:00 AM82 °FPartly cloudy.2 mph79%29.86 "Hg4 mi
1:00 AM82 °FPassing clouds.1 mph79%29.86 "Hg4 mi
12:00 AM84 °FPassing clouds.1 mph74%29.86 "Hg4 mi
11:00 PM
Sat, Aug 29
84 °FPassing clouds.1 mph74%29.86 "Hg4 mi
10:00 PM86 °FPassing clouds.1 mph66%29.83 "Hg6 mi
9:00 PM88 °FPartly cloudy.6 mph62%29.80 "Hg4 mi
8:00 PM88 °FBroken clouds.7 mph62%29.77 "Hg4 mi
7:00 PM90 °FPartly sunny.10 mph63%29.74 "Hg3 mi
6:00 PM93 °FBroken clouds.13 mph59%29.71 "HgN/A
5:00 PM93 °FBroken clouds.12 mph59%29.71 "HgN/A
4:00 PM95 °FBroken clouds.9 mph60%29.74 "HgN/A
3:00 PM95 °FBroken clouds.8 mph56%29.77 "HgN/A
2:00 PM95 °FBroken clouds.10 mph56%29.77 "HgN/A
1:00 PM95 °FBroken clouds.9 mph60%29.83 "HgN/A
12:00 PM91 °FBroken clouds.10 mph63%29.86 "HgN/A
11:00 AM90 °FBroken clouds.9 mph67%29.86 "HgN/A
10:00 AM88 °FPartly sunny.7 mph70%29.86 "HgN/A
9:00 AM86 °FPartly sunny.6 mph70%29.86 "Hg5 mi
8:00 AM81 °FPassing clouds.2 mph84%29.86 "Hg4 mi
7:00 AM79 °FPartly cloudy.2 mph89%29.83 "Hg3 mi
6:00 AM79 °FPartly cloudy.No wind89%29.83 "Hg3 mi
5:00 AM81 °FPassing clouds.1 mph84%29.83 "Hg3 mi
4:00 AM81 °FPassing clouds.1 mph84%29.83 "Hg4 mi
Weather by CustomWeather, © 2015

See weather overviewHow to use our weather pages